Погода в Семеновке

Россия / Саратовская область     51°46′03″N   47°20′29″E
темп.,
°C
ветер,
м/с
пор.,
м/с
влажн.,
%
обл.,
%
осадки,
мм/ч
давл.,
гПа
погр.,
м
6 марта, сб
сб601:00−7зсз338882 0.0 101430
04:00−8зсз238886 0.0 101621
07:00−10сз228886 0.0 101621
10:00−7сз119092 0.0 101750
13:00−5ссв2285100 0.0 1016249
16:00−4всв2489100 0.0 1015348
19:00−6в2392100 0.0 101551
22:00−7св3491100 0.0 101483
7 марта, вс
вс701:00−9св2390100 0.0 101453
04:00−12с228875 0.0 101421
07:00−12зсз23880 0.0 101421
10:00−11з35900 0.0 1016154
13:00−8зюз47890 0.0 1015345
16:00−6юз49878 0.0 1013524
19:00−7ююз6138687 0.0 1011416
22:00−5ююз9168493 0.0 1009756
8 марта, пн
пн801:00−4юз101794100 0.9 1005951
04:00−3юз101792100 2.4 1004870
07:00−3зюз71391100 0.2 1004553
10:00−2юз7139399 0.4 1004822
13:000юз91491100 0.4 10031033
16:000юз91485100 0.6 10021083
19:00−4з81581100 1.0 1003811
22:00−9з6158359 1.0 1006529
9 марта, вт
вт901:00−10зюз614890 0.0 1008375
04:00−11зюз512910 0.0 1010305
07:00−12зюз49930 0.0 1012181
10:00−11з48920 0.0 1013293
13:00−8зюз479044 0.0 1014438
16:00−7з468970 0.0 1013588
19:00−11з349198 0.0 101445
22:00−13зсз469288 0.0 101597
10 марта, ср
ср1001:00−14зсз3691100 0.0 1016100
04:00−16зсз469294 0.0 1017117
07:00−18зсз47930 0.0 1019113
10:00−17зсз59880 0.0 1020342
13:00−14зсз47840 0.0 1021514
16:00−13з468627 0.0 1020540
19:00−13зюз2296100 0.2 102040
22:00−13вюв1196100 0.4 102020